FW4085 Weather Reports


time (UTC)temp
C
wind
direction
speed
KPH
gust
KPH
rain 1hr
cm
rain 24hr
cm
rain mn
cm
humidity
%
barometer
mb
20260505034519 16 221 6.4 14.5 0.00 0.00 0.00 52 856.2
20260505033539 16 241 6.4 19.3 0.00 0.00 0.00 51 856.2
20260505032517 16 249 3.2 14.5 0.00 0.00 0.00 52 856.2
20260505031520 16 244 4.8 12.9 0.00 0.00 0.00 51 856.2
20260505030520 16 281 3.2 6.4 0.00 0.00 0.00 52 856.1
20260505025540 16 290 1.6 4.8 0.00 0.00 0.00 50 856.2
20260505024518 16 243 4.8 12.9 0.00 0.00 0.00 50 856.2
20260505023518 16 226 3.2 12.9 0.00 0.00 0.00 50 856.1
20260505022521 15 247 3.2 8.0 0.00 0.00 0.00 52 856.0
20260505021518 15 292 3.2 6.4 0.00 0.00 0.00 52 856.0
20260505020538 15 278 1.6 6.4 0.00 0.00 0.00 50 856.1
20260505015518 15 268 3.2 9.7 0.00 0.00 0.00 51 856.0
20260505014539 15 276 1.6 6.4 0.00 0.00 0.00 51 856.0
20260505013518 15 274 1.6 6.4 0.00 0.00 0.00 50 856.1
20260505012519 15 299 1.6 4.8 0.00 0.00 0.00 50 856.0
20260505011519 16 267 3.2 6.4 0.00 0.00 0.00 50 856.1
20260505010519 16 5 1.6 4.8 0.00 0.00 0.00 48 856.1
20260505005519 17 311 1.6 3.2 0.00 0.00 0.00 47 856.2
20260505004519 17 250 1.6 4.8 0.00 0.00 0.00 46 856.2
20260505003520 17 274 0.0 3.2 0.00 0.00 0.00 45 856.3
20260505002520 17 256 1.6 8.0 0.00 0.00 0.00 45 856.3
20260505001557 17 251 1.6 4.8 0.00 0.00 0.00 45 856.3
20260505000517 17 241 3.2 6.4 0.00 0.00 0.00 44 856.3
20260504235520 17 253 3.2 6.4 0.00 0.00 0.00 44 856.3
20260504234520 18 253 1.6 4.8 0.00 0.00 0.00 43 856.4
20260504233517 18 214 3.2 11.3 0.00 0.00 0.00 43 856.4
20260504232518 18 208 1.6 4.8 0.00 0.00 0.00 42 856.5
20260504231538 19 210 1.6 8.0 0.00 0.00 0.00 41 856.5
20260504230522 19 228 4.8 9.7 0.00 0.00 0.00 41 856.5
20260504225519 20 225 4.8 14.5 0.00 0.00 0.00 40 856.6
20260504224518 20 249 3.2 9.7 0.00 0.00 0.00 39 856.7
20260504223519 20 234 3.2 11.3 0.00 0.00 0.00 40 856.7
20260504222519 20 230 1.6 6.4 0.00 0.00 0.00 40 856.7
20260504221539 21 225 1.6 9.7 0.00 0.00 0.00 39 856.8
20260504220520 21 240 3.2 11.3 0.00 0.00 0.00 40 856.8
20260504215539 21 229 3.2 9.7 0.00 0.00 0.00 40 856.8
20260504214519 20 141 1.6 6.4 0.00 0.00 0.00 41 856.7
20260504213517 21 226 3.2 12.9 0.00 0.00 0.00 40 856.8
20260504212540 21 236 3.2 16.1 0.00 0.00 0.00 40 856.8
20260504211519 20 226 3.2 11.3 0.00 0.00 0.00 41 856.8
20260504210541 20 227 4.8 12.9 0.00 0.00 0.00 41 856.8
20260504205517 20 221 4.8 12.9 0.00 0.00 0.00 41 856.7
20260504204537 20 220 4.8 14.5 0.00 0.00 0.00 41 856.8
20260504203521 20 244 4.8 12.9 0.00 0.00 0.00 42 856.7
20260504202518 20 245 6.4 16.1 0.00 0.00 0.00 41 856.7
20260504201518 20 261 3.2 12.9 0.00 0.00 0.00 41 856.7
20260504200538 20 249 4.8 12.9 0.00 0.00 0.00 42 856.8
20260504195539 20 213 4.8 12.9 0.00 0.00 0.00 42 856.7
20260504194538 20 229 3.2 11.3 0.00 0.00 0.00 42 856.7
20260504193519 20 273 4.8 12.9 0.00 0.00 0.00 41 856.8
20260504192519 20 224 4.8 16.1 0.00 0.00 0.00 42 856.8
20260504191519 19 210 4.8 16.1 0.00 0.00 0.00 43 856.7
20260504190519 20 230 6.4 12.9 0.00 0.00 0.00 41 856.6
20260504185520 20 220 4.8 11.3 0.00 0.00 0.00 41 856.7
20260504184520 20 214 6.4 19.3 0.00 0.00 0.00 42 856.7
20260504183520 20 218 6.4 19.3 0.00 0.00 0.00 42 856.7
20260504182517 19 218 6.4 14.5 0.00 0.00 0.00 43 856.7
20260504181517 18 217 6.4 16.1 0.00 0.00 0.00 44 856.6
20260504180540 18 239 6.4 17.7 0.00 0.00 0.00 44 856.5
20260504175518 18 213 6.4 14.5 0.00 0.00 0.00 43 856.5
20260504174538 18 240 6.4 16.1 0.00 0.00 0.00 43 856.6
20260504173518 18 225 4.8 12.9 0.00 0.00 0.00 43 856.5
20260504172518 17 235 6.4 12.9 0.00 0.00 0.00 45 856.5
20260504171518 17 233 4.8 12.9 0.00 0.00 0.00 46 856.4
20260504170518 17 208 4.8 16.1 0.00 0.00 0.00 45 856.4
20260504150517 16 252 6.4 14.5 0.00 0.00 0.00 48 856.2
20260504140519 15 245 4.8 17.7 0.00 0.00 0.00 48 856.2
20260504130520 13 221 6.4 14.5 0.00 0.00 0.00 49 855.9
20260504110519 8 76 3.2 6.4 0.00 0.00 0.00 67 855.3
20260504100523 4 14 1.6 3.2 0.00 0.00 0.00 79 854.8
20260504081525 6 200 1.6 3.2 0.00 0.00 0.00 76 854.9
20260504080525 6 107 1.6 1.6 0.00 0.00 0.00 75 855.0
20260504050539 7 257 3.2 4.8 0.00 0.00 0.00 65 855.1
20260504045517 7 248 3.2 6.4 0.00 0.00 0.00 67 855.1
20260504044517 7 251 3.2 4.8 0.00 0.00 0.00 65 855.1
20260504043520 7 272 1.6 3.2 0.00 0.00 0.00 65 855.1
20260504042540 7 248 3.2 4.8 0.00 0.00 0.00 65 855.1
20260504041537 7 249 3.2 4.8 0.00 0.00 0.00 65 855.1
20260504040538 7 248 3.2 4.8 0.00 0.00 0.00 65 855.1
20260504035518 7 255 3.2 6.4 0.00 0.00 0.00 64 855.0